Regional Weather Roundup
Issued by NWS Charleston, SC

Current Version | Previous Version | Graphics & Text | Print | Product List | Glossary On
Versions: 1 2 3 4 5 6 7 8 9 10 11 12 13 14 15 16 17 18 19 20 21 22 23 24 25 26 27 28 29 30 31 32 33 34 35 36 37 38 39 40 41 42 43 44 45 46 47 48 49 50
024 ASUS42 KCHS 160127 RWRCHS Regional Weather Roundup National Weather Service Charleston SC 800 PM EST MON JAN 15 2018 NOTE: "fair" indicates few or no clouds below 12,000 feet with no significant weather and/or obstructions to visibility. Not all stations are quality controlled. Use data with caution, especially dewpoint observations. SCZ027-030-031-034>040-042>050-160200- ...Southeast South Carolina... CITY SKY/WX TMP DP RH WIND PRES REMARKS N Charleston FAIR 37 20 50 N5 30.46S WCI 33 Waterfront Prk NOT AVBL Mount Pleasant FAIR 34 27 75 CALM 30.47S Johns Island FAIR 34 23 64 CALM 30.46F Pinopolis N/A 41 23 48 N7 30.39R Moncks Corner FAIR 30 23 74 CALM 30.47R Summerville FAIR 32 23 69 CALM 30.47S Beaufort MCAS FAIR 38 25 59 N5 30.46R WCI 34 Beaufort Arpt FAIR 37 28 70 NE3 30.46R Hilton Head Is FAIR 37 28 70 N3 30.47R Walterboro FAIR 30 25 80 CALM 30.47R Allendale FAIR 34 25 69 CALM 30.45R ...Southern Midlands and Pee Dee... CITY SKY/WX TMP DP RH WIND PRES REMARKS Georgetown FAIR 34 19 55 NW5 30.47S WCI 30 Kingstree FAIR 30 21 69 CALM 30.47S Orangeburg FAIR 33 21 61 CALM 30.45S Barnwell N/A 36 25 64 CALM 30.45R Aiken FAIR 30 21 69 CALM 30.46S Manning FAIR 30 21 69 MISG 30.46F Columbia FAIR 34 21 59 CALM 30.44F Sumter FAIR 30 19 63 CALM 30.44R Florence FAIR 31 19 61 CALM 30.47R Myrtle Beach FAIR 36 19 50 NW7 30.47R WCI 30 N Myrtle Beach FAIR 35 22 58 N5 30.45R WCI 31 $$ GAZ063-065-086>088-099>101-113>116-118-119-134>141-150-160200- ...Southeast Georgia... CITY SKY/WX TMP DP RH WIND PRES REMARKS Savannah Arpt FAIR 37 28 70 NE6 30.46R WCI 32 Hunter AAF FAIR 43 21 42 N3 30.43R Fort Stewart FAIR 36 28 75 CALM 30.44R Statesboro FAIR 33 26 75 CALM 30.46R Sylvania FAIR 33 29 85 CALM 30.46R Claxton FAIR 34 31 90 CALM 30.46R ...CSRA, Central and far Southeast Georgia... CITY SKY/WX TMP DP RH WIND PRES REMARKS Thomson FAIR 30 23 77 CALM 30.49R Augusta-Bush FAIR 32 23 69 CALM 30.44S Augusta-Daniel FAIR 40 20 44 CALM 30.44R Swainsboro FAIR 36 32 87 CALM 30.45S Vidalia FAIR 37 32 81 CALM 30.45R Eastman FAIR 36 25 63 CALM 30.46S Hazlehurst FAIR 42 20 41 E3 30.43S Alma FAIR 35 31 85 CALM 30.43S Waycross FAIR 38 32 78 CALM 30.44S Jesup NOT AVBL Baxley FAIR 34 30 86 CALM 30.44R Brunswick FAIR 34 32 93 CALM 30.46R Saint Simons FAIR 39 31 72 N3 30.44S $$ SCZ027-028-034-036>038-045-046-048>050-GAZ119-141-160200- ...Lake and Supplemental Coastal Observations... STATION/POSITION TIME TEMP WIND PRES WAVE SWELL AIR SEA DIR/SP/G HT/PER HT/PER/DIR (UTC) (F) (DEG/KT/KT) (MB) (FT/S) (FT/S/D) Winyah Bay 0030 35 320/ 4 1031.0S Lake Murray 0030 38 CALM / 1 1030.1S ACE Basin NERRS 0045 35 CALM 1031.0S Fort Pulaski 0100 44 46 40/ 6/ 7 1031.4 Sapelo Island 0100 36 20/ 1 1031.0 $$ ANZ835-935-AMZ111-154-330-350-352-354-370-450-454-472-160200- ...C-MAN and Buoy Observations... STATION/POSITION TIME TEMP WIND PRES WAVE SWELL AIR SEA DIR/SP/G HT/PER HT/PER/DIR (UTC) (F) (DEG/KT/KT) (MB) (FT/S) (FT/S/D) Buoy 41004 0110 48 70 360/ 14/ 19 1030.4 Buoy 41008 0050 47 50 50/ 12/ 14 1030.4R 4/10 3/120/10 Folly Beach CMAN 0100 40 340/ 5/ 7 1031.8S Capers Nearshore 0108 39 360/ 10/ 12 1031.2R Fripp Nearshore 0108 42 47 20/ 12/ 16 1030.6R STATION/POSITION TIME TEMP WIND PRES WAVE SWELL AIR SEA DIR/SP/G HT/PER HT/PER/DIR (UTC) (F) (DEG/KT/KT) (MB) (FT/S) (FT/S/D) 5E St. Marys GA 0100 50 N/A 5/11 2/ 90/11 Frying Pan Buoy 0110 46 59 350/ 16/ 17 1030.2 Buoy 41025 0110 44 68 350/ 21/ 27 1028.6 Cape Lookout NC 0100 350/ 10/ 12 1030.3R Buoy 41002 0050 65 70 20/ 16/ 19 1025.1R 10/ 9 8/ 50/ 9 Buoy 41010 NOT AVBL St Augustine FL 0100 48 51 10/ 17/ 19 1030.0R $$

USA.gov is the U.S. government's official web portal to all federal, state and local government web resources and services.